KE5KUL-13 Weather Reports


Display with metric or nautical units.
time (UTC)temp
F
wind
direction
speed
MPH
gust
MPH
rain 1hr
in
rain 24hr
in
rain mn
in
humidity
%
barometer
mb
20260507103517 42 45 1.0 3.0 0.00 0.03 0.03 89 1023.1
20260507102517 42 45 2.0 4.0 0.00 0.03 0.03 89 1023.2
20260507101517 42 45 1.0 2.0 0.00 0.03 0.03 89 1023.1
20260507100517 42 45 1.0 5.0 0.00 0.03 0.03 89 1023.2
20260507095517 43 68 2.0 4.0 0.00 0.03 0.03 89 1023.5
20260507094517 43 68 1.0 3.0 0.00 0.03 0.03 89 1023.3
20260507093517 43 68 1.0 4.0 0.01 0.03 0.03 89 1023.5
20260507092517 42 68 1.0 3.0 0.01 0.03 0.03 89 1023.3
20260507091517 42 0.0 1.0 0.01 0.03 0.03 88 1023.4
20260507090517 42 0.0 0.0 0.01 0.03 0.03 87 1023.1
20260507085517 42 68 1.0 5.0 0.01 0.03 0.03 87 1023.0
20260507084517 42 0.0 2.0 0.01 0.03 0.03 87 1022.7
20260507083517 42 68 1.0 2.0 0.00 0.02 0.02 86 1022.8
20260507082517 43 0.0 0.0 0.01 0.02 0.02 86 1022.9
20260507081519 43 68 1.0 3.0 0.02 0.02 0.02 86 1023.3
20260507080517 43 0.0 0.0 0.02 0.02 0.02 85 1023.1
20260507075517 44 0.0 2.0 0.02 0.02 0.02 84 1023.2
20260507074517 44 45 1.0 3.0 0.02 0.02 0.02 83 1023.5
20260507073519 44 0.0 2.0 0.02 0.02 0.02 82 1022.9
20260507072517 45 0.0 1.0 0.01 0.01 0.01 80 1023.6
20260507071517 45 23 2.0 4.0 0.00 0.00 0.00 79 1024.2
20260507070517 45 23 2.0 4.0 0.00 0.00 0.00 77 1024.1
20260507065519 46 23 2.0 6.0 0.00 0.00 0.00 73 1024.3
20260507064519 46 23 3.0 5.0 0.00 0.00 0.00 71 1024.7
20260507063517 46 23 3.0 10.0 0.00 0.00 0.00 69 1024.5
20260507062519 46 23 1.0 5.0 0.00 0.00 0.00 69 1024.6
20260507061517 47 23 2.0 5.0 0.00 0.00 0.00 68 1024.0
20260507060519 47 23 3.0 8.0 0.00 0.00 0.00 67 1024.0
20260507055519 47 45 1.0 3.0 0.00 0.00 0.00 67 1023.9
20260507054519 47 45 1.0 4.0 0.00 0.00 0.00 66 1023.6
20260507053518 47 23 2.0 8.0 0.00 0.00 0.00 66 1023.7
20260507052519 47 45 2.0 5.0 0.00 0.00 0.00 65 1023.4
20260507051519 47 45 3.0 11.0 0.00 0.00 0.00 65 1022.7
20260507050518 47 45 4.0 11.0 0.00 0.00 0.00 64 1022.7
20260507045517 47 45 2.0 9.0 0.00 0.00 0.00 64 1022.8
20260507044517 48 45 4.0 9.0 0.00 0.00 0.00 63 1023.2
20260507043518 48 45 4.0 9.0 0.00 0.00 0.00 62 1022.8
20260507042517 48 45 6.0 12.0 0.00 0.00 0.00 61 1022.5
20260507041517 49 23 3.0 11.0 0.00 0.00 0.00 59 1022.4
20260507040517 49 45 4.0 12.0 0.00 0.00 0.00 59 1022.4
20260507035518 49 45 5.0 14.0 0.00 0.00 0.00 58 1021.8
20260507034517 50 45 6.0 15.0 0.00 0.00 0.00 57 1022.1
20260507033517 50 45 6.0 15.0 0.00 0.00 0.00 57 1022.0
20260507032517 51 45 5.0 13.0 0.00 0.00 0.00 57 1021.8
20260507031518 51 45 5.0 13.0 0.00 0.00 0.00 56 1021.7
20260507030517 52 45 5.0 11.0 0.00 0.00 0.00 55 1021.2
20260507025517 52 45 5.0 12.0 0.00 0.00 0.00 54 1021.0
20260507024517 53 23 4.0 12.0 0.00 0.00 0.00 54 1021.0
20260507023517 53 23 6.0 16.0 0.00 0.00 0.00 53 1020.4
20260507022517 54 23 7.0 16.0 0.00 0.00 0.00 52 1020.2
20260507021517 54 23 4.0 13.0 0.00 0.00 0.00 52 1019.8
20260507020517 55 45 4.0 15.0 0.00 0.00 0.00 52 1019.7
20260507015517 55 23 3.0 8.0 0.00 0.00 0.00 53 1018.9
20260507014517 55 45 3.0 9.0 0.00 0.00 0.00 52 1018.9
20260507013517 55 68 2.0 9.0 0.00 0.00 0.00 52 1018.7
20260507012517 56 90 2.0 6.0 0.00 0.00 0.00 51 1018.0
20260507011517 56 45 2.0 5.0 0.00 0.00 0.00 50 1017.5
20260507010517 57 113 2.0 8.0 0.00 0.00 0.00 50 1017.4
20260507005517 58 135 2.0 7.0 0.00 0.00 0.00 49 1017.1
20260507004517 58 135 1.0 4.0 0.00 0.00 0.00 49 1016.9
20260507003519 58 68 1.0 5.0 0.00 0.00 0.00 48 1017.0
20260507002517 59 113 2.0 11.0 0.00 0.00 0.00 47 1017.0
20260507001517 60 135 2.0 6.0 0.00 0.00 0.00 46 1017.0
20260507000517 60 135 4.0 11.0 0.00 0.00 0.00 46 1017.0
20260506235519 60 135 5.0 12.0 0.00 0.00 0.00 46 1016.5
20260506234519 61 135 4.0 13.0 0.00 0.00 0.00 45 1016.6
20260506233517 61 135 3.0 11.0 0.00 0.00 0.00 45 1016.5
20260506232517 62 135 2.0 6.0 0.00 0.00 0.00 44 1016.6
20260506231519 62 135 3.0 9.0 0.00 0.00 0.00 44 1016.8
20260506230519 62 135 3.0 7.0 0.00 0.00 0.00 45 1016.7
20260506225517 62 158 3.0 7.0 0.00 0.00 0.00 45 1016.7
20260506224517 63 45 3.0 13.0 0.00 0.00 0.00 44 1016.9
20260506223519 63 158 2.0 7.0 0.00 0.00 0.00 44 1016.9
20260506222519 63 45 2.0 7.0 0.00 0.00 0.00 44 1017.0
20260506221519 63 113 3.0 9.0 0.00 0.00 0.00 44 1017.4
20260506220518 63 113 2.0 6.0 0.00 0.00 0.00 44 1017.5
20260506215518 63 113 2.0 9.0 0.00 0.00 0.00 44 1017.4
20260506214517 63 113 3.0 9.0 0.00 0.00 0.00 44 1017.6
20260506213519 64 135 4.0 13.0 0.00 0.00 0.00 42 1017.7
20260506212517 65 90 3.0 8.0 0.00 0.00 0.00 42 1017.7
20260506211518 64 45 3.0 10.0 0.00 0.00 0.00 43 1017.8
20260506210519 63 90 2.0 6.0 0.00 0.00 0.00 45 1017.6
20260506205519 62 135 3.0 8.0 0.00 0.00 0.00 44 1017.6
20260506204519 64 113 2.0 9.0 0.00 0.00 0.00 42 1017.9
20260506203519 63 135 4.0 10.0 0.00 0.00 0.00 44 1017.8
20260506202518 64 135 3.0 8.0 0.00 0.00 0.00 41 1017.6
20260506201519 65 45 2.0 6.0 0.00 0.00 0.00 42 1017.8
20260506200518 64 113 3.0 10.0 0.00 0.00 0.00 43 1017.7
20260506195518 63 113 3.0 8.0 0.00 0.00 0.00 43 1017.5
20260506194518 64 135 2.0 8.0 0.00 0.00 0.00 42 1017.4
20260506193518 63 90 2.0 6.0 0.00 0.00 0.00 45 1017.7
20260506192518 61 135 2.0 6.0 0.00 0.00 0.00 47 1017.7
20260506191519 64 135 4.0 10.0 0.00 0.00 0.00 43 1017.8
20260506190518 62 113 2.0 12.0 0.00 0.00 0.00 46 1018.2
20260506185518 61 23 4.0 12.0 0.00 0.00 0.00 45 1017.9
20260506184519 63 68 1.0 5.0 0.00 0.00 0.00 44 1018.3
20260506183518 63 45 2.0 6.0 0.00 0.00 0.00 44 1018.3
20260506182518 61 45 2.0 5.0 0.00 0.00 0.00 47 1018.2
20260506181623 60 135 2.0 8.0 0.00 0.00 0.00 48 1018.3
20260506180518 60 113 2.0 5.0 0.00 0.00 0.00 49 1018.5
20260506175518 60 45 2.0 6.0 0.00 0.00 0.00 51 1018.6
20260506174518 59 23 3.0 9.0 0.00 0.00 0.00 49 1018.8
20260506173518 59 135 3.0 10.0 0.00 0.00 0.00 49 1018.8
20260506172518 57 113 2.0 7.0 0.00 0.00 0.00 54 1018.6
20260506171518 56 135 2.0 6.0 0.00 0.00 0.00 54 1018.2
20260506170518 56 135 3.0 9.0 0.00 0.00 0.00 54 1018.4
20260506165518 55 113 4.0 8.0 0.00 0.00 0.00 55 1018.1
20260506164518 54 135 1.0 5.0 0.00 0.00 0.00 58 1018.3
20260506163518 53 135 3.0 7.0 0.00 0.00 0.00 57 1018.3
20260506162518 53 113 1.0 5.0 0.00 0.00 0.00 58 1018.2
20260506161518 53 158 2.0 4.0 0.00 0.00 0.00 57 1018.0
20260506161220 53 158 1.0 4.0 0.00 0.00 0.00 58 1017.8
20260506154018 50 0.0 2.0 0.00 0.00 0.00 62 1017.5
20260506153018 50 135 2.0 7.0 0.00 0.00 0.00 62 1017.5
20260506152018 49 135 2.0 7.0 0.00 0.00 0.00 63 1017.0
20260506151018 49 135 3.0 8.0 0.00 0.00 0.00 63 1017.2
20260506150018 48 0.0 3.0 0.00 0.00 0.00 64 1017.0
20260506145018 48 135 2.0 4.0 0.00 0.00 0.00 64 1017.1
20260506144018 47 135 1.0 5.0 0.00 0.00 0.00 66 1016.6
20260506143018 46 113 3.0 8.0 0.00 0.00 0.00 66 1016.5
20260506142018 46 135 3.0 8.0 0.00 0.00 0.00 67 1016.3
20260506141018 46 135 4.0 9.0 0.00 0.00 0.00 67 1016.2
20260506140017 45 135 4.0 11.0 0.00 0.00 0.00 67 1016.2
20260506135018 45 135 6.0 12.0 0.00 0.00 0.00 68 1016.3
20260506134018 45 135 5.0 10.0 0.00 0.00 0.00 68 1016.5
20260506133017 44 135 2.0 9.0 0.00 0.00 0.00 69 1016.5
20260506132017 44 113 4.0 9.0 0.00 0.00 0.00 69 1016.5
20260506131018 43 113 4.0 10.0 0.00 0.00 0.00 70 1016.6
20260506130018 43 113 3.0 9.0 0.00 0.00 0.00 70 1017.1
20260506125017 43 113 5.0 10.0 0.00 0.00 0.00 70 1017.0
20260506124017 43 113 3.0 5.0 0.00 0.00 0.00 72 1016.9
20260506123018 42 135 3.0 7.0 0.00 0.00 0.00 72 1016.9
20260506122018 42 135 2.0 9.0 0.00 0.00 0.00 72 1017.0
20260506121017 42 135 3.0 9.0 0.00 0.00 0.00 72 1016.5
20260506120017 42 135 3.0 8.0 0.00 0.00 0.00 72 1016.5
20260506115018 42 135 4.0 10.0 0.00 0.00 0.00 73 1016.1
20260506114018 42 135 4.0 10.0 0.00 0.00 0.00 74 1016.2
20260506113018 42 135 3.0 8.0 0.00 0.00 0.00 78 1016.0
20260506112017 41 135 2.0 7.0 0.00 0.00 0.00 80 1015.9
20260506111017 41 135 3.0 12.0 0.00 0.00 0.00 81 1015.8
20260506110017 41 135 3.0 8.0 0.00 0.00 0.00 82 1016.0
20260506105017 42 135 3.0 9.0 0.00 0.00 0.00 82 1016.2